TimeEDT,TemperatureF,Dew PointF,Humidity,Sea Level PressureIn,VisibilityMPH,Wind Direction,Wind SpeedMPH,Gust SpeedMPH,PrecipitationIn,Events,Conditions,WindDirDegrees,DateUTC
12:53 AM,78.1,71.1,79,29.83,10.0,ESE,5.8,-,N/A,,Partly Cloudy,110,2012-10-17 04:53:00
1:53 AM,78.1,71.1,79,29.82,10.0,SE,3.5,-,N/A,,Scattered Clouds,130,2012-10-17 05:53:00
2:53 AM,79.0,70.0,74,29.82,10.0,Calm,Calm,-,N/A,,Partly Cloudy,0,2012-10-17 06:53:00
3:53 AM,77.0,71.1,82,29.82,10.0,Calm,Calm,-,N/A,,Partly Cloudy,0,2012-10-17 07:53:00
4:53 AM,77.0,72.0,84,29.83,10.0,Calm,Calm,-,N/A,,Mostly Cloudy,0,2012-10-17 08:53:00
5:53 AM,77.0,72.0,84,29.84,10.0,NW,4.6,-,N/A,,Mostly Cloudy,310,2012-10-17 09:53:00
6:53 AM,77.0,72.0,84,29.85,10.0,Calm,Calm,-,N/A,,Mostly Cloudy,0,2012-10-17 10:53:00
7:53 AM,77.0,73.0,88,29.86,10.0,Calm,Calm,-,N/A,,Partly Cloudy,0,2012-10-17 11:53:00
8:53 AM,79.0,72.0,79,29.88,10.0,ESE,3.5,-,N/A,,Scattered Clouds,110,2012-10-17 12:53:00
9:53 AM,82.0,72.0,71,29.88,10.0,SE,5.8,-,N/A,,Scattered Clouds,130,2012-10-17 13:53:00
10:53 AM,84.0,71.1,65,29.88,10.0,SE,8.1,-,N/A,,Scattered Clouds,140,2012-10-17 14:53:00
11:53 AM,84.9,72.0,65,29.88,10.0,SE,11.5,-,N/A,,Scattered Clouds,140,2012-10-17 15:53:00
12:53 PM,84.0,72.0,67,29.87,10.0,SSE,9.2,-,N/A,,Partly Cloudy,160,2012-10-17 16:53:00
1:53 PM,82.9,70.0,65,29.86,10.0,SE,11.5,-,N/A,,Clear,140,2012-10-17 17:53:00
2:53 PM,82.9,72.0,69,29.83,10.0,SSE,8.1,-,N/A,,Partly Cloudy,160,2012-10-17 18:53:00
3:53 PM,84.9,73.0,67,29.83,10.0,SSE,9.2,-,N/A,,Mostly Cloudy,150,2012-10-17 19:53:00
4:53 PM,82.0,73.0,74,29.82,10.0,South,8.1,-,N/A,,Mostly Cloudy,180,2012-10-17 20:53:00
5:53 PM,82.0,73.0,74,29.82,10.0,SSE,10.4,-,N/A,,Mostly Cloudy,150,2012-10-17 21:53:00
6:53 PM,81.0,73.0,77,29.82,10.0,SSE,6.9,-,N/A,,Mostly Cloudy,160,2012-10-17 22:53:00
7:53 PM,78.1,73.9,87,29.84,6.0,SW,6.9,-,0.05,Rain,Light Rain,220,2012-10-17 23:53:00
8:26 PM,73.4,71.6,94,29.87,10.0,NNW,17.3,-,0.01,,Mostly Cloudy,340,2012-10-18 00:26:00
8:53 PM,73.0,71.1,93,29.89,10.0,North,16.1,-,0.06,Rain,Light Rain,360,2012-10-18 00:53:00
9:53 PM,73.0,70.0,90,29.89,10.0,NE,10.4,-,0.00,,Overcast,40,2012-10-18 01:53:00
10:53 PM,75.0,71.1,87,29.89,10.0,NE,11.5,-,N/A,,Mostly Cloudy,50,2012-10-18 02:53:00
11:53 PM,77.0,71.1,82,29.88,10.0,ENE,8.1,-,N/A,,Mostly Cloudy,70,2012-10-18 03:53:00